This demonstration page uses our WeatherBlox Daily Observations layout. Learn more.

Left ArrowRight Arrow

38.80484, -77.04692

Hourly Observations for November 22, 2021

Temp ( °F °C ) Dew Point ( °F °C ) Humidity (%) Winds ( mph kmh ) Pressure ( in mb ) Visibility ( mi km ) Precip ( " mm )
12:52 am 00:52 Cloudy with Light Rain 49 9.4 42 5.6 77 77 S 7 11 29.96 1015 10 16 0.02 0.51
1:52 am 01:52 Cloudy with Light Rain 48 8.9 43 6.1 83 83 S 3 6 29.94 1014 10 16 0.01 0.25
2:52 am 02:52 Cloudy with Light Rain 48 8.9 44 6.7 86 86 S 6 9 29.92 1013 10 16 0.02 0.51
3:52 am 03:52 Cloudy with Light Rain 48 8.9 44 6.7 86 86 NNW 6 9 29.92 1013 10 16 0.01 0.25
4:52 am 04:52 Cloudy 48 8.9 44 6.7 86 86 NW 5 7 29.92 1013 10 16 0.00 0.00
5:52 am 05:52 Cloudy 48 8.9 42 5.6 80 80 NW 3 6 29.92 1013 10 16 N/A
6:52 am 06:52 Cloudy with Light Rain 48 8.9 40 4.4 74 74 N N/A 29.92 1013 10 16 0.00 0.00
7:52 am 07:52 Cloudy 47 8.3 41 5 80 80 NNE 3 6 29.92 1013 10 16 0.01 0.25
8:52 am 08:52 Cloudy 49 9.4 41 5 74 74 N 5 7 29.93 1014 10 16 N/A
9:52 am 09:52 Mostly Cloudy 50 10 41 5 71 71 N 6 9 29.93 1013 10 16 N/A
10:52 am 10:52 Mostly Cloudy 50 10 41 5 71 71 NNW 8 13 29.92 1013 10 16 N/A
11:52 am 11:52 Mostly Cloudy 53 11.7 38 3.3 57 57 VRB 6 9 29.90 1013 10 16 N/A
12:52 pm 12:52 Mostly Cloudy 53 11.7 35 1.7 51 51 NNW 10 17 29.88 1012 10 16 N/A
1:52 pm 13:52 Partly Cloudy 52 11.1 36 2.2 55 55 NW 22 35 29.90 1013 10 16 N/A
2:52 pm 14:52 Mostly Cloudy 51 10.6 31 -0.6 46 46 NW 18 30 29.90 1013 10 16 N/A
3:52 pm 15:52 Mostly Cloudy 50 10 29 -1.7 44 44 NNW 21 33 29.92 1013 10 16 N/A
4:52 pm 16:52 Mostly Cloudy 47 8.3 22 -5.6 37 37 NNW 18 30 29.95 1014 10 16 N/A
5:52 pm 17:52 Mostly Cloudy 45 7.2 20 -6.7 37 37 NNW 17 28 29.98 1015 10 16 N/A
6:52 pm 18:52 Mostly Cloudy 44 6.7 20 -6.7 38 38 NNW 20 31 30.00 1016 10 16 N/A
7:52 pm 19:52 Mostly Cloudy 42 5.6 19 -7.2 40 40 NNW 16 26 30.03 1017 10 16 N/A
8:52 pm 20:52 Partly Cloudy 41 5 20 -6.7 43 43 NNW 15 24 30.04 1017 10 16 N/A
9:52 pm 21:52 Partly Cloudy 39 3.9 18 -7.8 43 43 NNW 16 26 30.05 1018 10 16 N/A
10:52 pm 22:52 Partly Cloudy 38 3.3 18 -7.8 44 44 N 16 26 30.06 1018 10 16 N/A
11:52 pm 23:52 Partly Cloudy 37 2.8 17 -8.3 44 44 NNW 13 20 30.07 1018 10 16 N/A

Powered by AerisWeather